Location: Chermignon
(46.2884°N, 7.4749°E)
Time: 01:39:50
(UTC+00:00)

Daily predictions for brighter satellites

Satellite Brightness Start Highest point End
(mag) Time Altitude Azimuth Time Altitude Azimuth Time Altitude Azimuth
Cosmos 2344 4.4 02:45:54 61° NNE 02:46:46 63° NE 02:59:19 10° SE
ATLAS 2AS CENTAUR R/B 4.0 02:52:20 39° NE 02:52:20 39° NE 02:56:48 10° NE
Lacrosse 5 4.1 03:33:29 19° NE 03:33:29 19° NE 03:35:00 10° NE
ATLAS 3B R/B 3.6 03:36:30 38° SSE 03:36:30 38° SSE 03:40:47 10° SSE
CZ-4C R/B 3.5 03:47:08 31° NNE 03:47:08 31° NNE 03:50:32 10° NE
COSMO-SKYMED 1 4.1 03:55:32 10° SE 03:59:26 33° ENE 04:00:08 31° NE
Atlas Centaur 2 4.4 04:00:45 18° SSW 04:00:45 18° SSW 04:04:43 10° SSE
Cosmos 1844 Rocket 3.6 04:02:42 39° NNE 04:02:42 39° NNE 04:06:14 10° NNE
COSMOS 2406 4.2 04:02:25 30° N 04:04:39 43° NE 04:10:07 10° SE
USA 305 3.6 04:16:56 51° ENE 04:16:56 51° ENE 04:20:24 10° ESE
ATLAS 5 CENTAUR R/B 2.2 04:17:17 50° ESE 04:17:17 50° ESE 04:21:31 10° NE
Nadezhda 3 Rocket 4.1 04:16:10 10° N 04:22:28 74° E 04:28:38 10° SSE
USA 306 3.2 04:25:27 64° ENE 04:25:27 64° ENE 04:29:18 10° ESE
Cosmos 2263 Rocket 4.4 04:33:14 11° N 04:33:14 11° N 04:33:37 10° N
Cosmos 1048 Rocket 4.4 04:28:12 30° N 04:30:43 61° ENE 04:35:50 10° SE
BREEZE-M DEB (TANK) 3.2 04:34:16 52° E 04:34:16 52° E 04:37:26 10° E
ADEOS 3.4 04:28:33 10° NNE 04:33:47 78° WNW 04:38:59 10° SSW
Uosat 12 SS-18 rocket 4.5 04:32:43 57° NNW 04:33:49 87° NE 04:39:49 10° SE
FENGYUN 3A 3.5 04:28:53 10° N 04:34:16 66° WNW 04:36:30 35° SW
Meteor 1-27 Rocket 4.0 04:29:24 10° N 04:35:14 71° ENE 04:41:09 10° SSE
Cosmos 1844 4.0 04:37:52 45° NW 04:37:52 45° NW 04:42:37 10° NNE
ATLAS 2AS CENTAUR R/B 3.7 04:39:48 32° NW 04:40:54 33° NNW 04:47:46 10° NNE
Meteor 1-10 Rocket 4.1 04:41:21 35° NNW 04:43:38 64° W 04:49:14 10° S
Cosmos 1356 4.2 04:40:38 10° S 04:43:57 51° E 04:47:18 10° NNE
Cosmos 1610 Rocket 4.4 04:40:07 10° SSW 04:46:30 78° W 04:52:55 10° N
SKYMED 2 3.4 04:43:02 10° S 04:47:22 81° WSW 04:48:45 43° NNW
METEOR-M 4.0 04:43:50 10° N 04:49:07 62° WNW 04:54:22 10° SSW
SJ-12 3.7 04:46:48 10° NNE 04:50:53 83° WNW 04:54:56 10° SSW
Cosmos 1707 Rocket 3.8 04:47:28 15° N 04:51:03 65° E 04:55:20 10° SSE
Cosmos 372 Rocket 3.9 04:49:27 38° SW 04:51:12 58° WNW 04:56:16 10° NNE
CZ-2C R/B 3.4 04:50:56 12° S 04:51:29 12° S 04:52:52 10° SSE
COSMOS 2455 2.9 04:49:17 36° WSW 04:51:38 57° NW 04:57:36 10° NNE
Cosmos 2150 Rocket 4.0 04:46:27 10° SSW 04:51:44 81° ESE 04:56:58 10° NNE
Cosmos 2154 Rocket 3.9 04:48:37 10° SSW 04:54:49 69° W 05:01:08 10° N
Cosmos 2298 Rocket 3.9 04:49:57 10° SSW 04:55:16 88° WNW 05:00:36 10° NNE
PSLV R/B 3.8 04:53:28 10° SSE 04:57:35 88° WSW 04:59:50 26° NNW
ALOS 3.8 04:55:07 10° N 04:56:56 21° NNW 04:56:56 21° NNW
Sich 1 2.9 04:55:51 10° S 05:00:17 83° W 05:04:45 10° N
ERS-2 4.1 04:58:06 10° SSW 04:59:08 17° SSW 04:59:08 17° SSW
Cosmos 1295 Rocket 4.3 04:55:27 10° SSW 05:01:30 74° W 05:07:38 10° N
Cosmos 1833 Rocket 2.6 04:57:52 21° NNW 05:01:45 88° ENE 05:07:22 10° SSE
Cosmos 2327 Rocket 4.4 04:57:46 10° SSW 05:03:44 57° WNW 05:09:45 10° N
Cosmos 2074 Rocket 4.4 05:00:47 10° SW 05:06:28 37° WNW 05:12:13 10° N
Cosmos 2082 Rocket 2.8 05:01:52 12° NNW 05:07:02 58° ENE 05:12:39 10° SE
SL-4 R/B 1.8 05:06:43 50° W 05:07:32 68° SSW 05:11:11 10° SE
EXPRESS MD2 3.9 05:07:42 39° W 05:08:56 57° SSW 05:15:35 10° SE
USA 290 3.4 05:07:38 20° N 05:09:32 41° ENE 05:12:36 10° SE
Cosmos 2228 Rocket 4.1 05:11:09 27° WSW 05:11:09 27° WSW 05:13:56 10° SSW
Cosmos 1437 Rocket 3.7 05:12:49 29° WSW 05:12:49 29° WSW 05:15:19 10° SSW
Lacrosse 5 3.3 05:12:41 21° NNW 05:14:17 24° N 05:18:25 10° NE
EO 1 Delta rocket 3.8 05:12:40 10° S 05:17:18 60° W 05:21:57 10° NNW
Cosmos 2341 Rocket 3.9 05:15:17 10° SSW 05:21:29 79° W 05:27:46 10° N
ERBS 4.2 05:21:36 17° N 05:22:54 21° NNE 05:25:30 10° ENE
ATLAS 3B R/B 4.4 05:23:49 13° WSW 05:23:49 13° WSW 05:26:27 10° SW
Meteor 2-12 Rocket 4.4 05:18:08 10° SSW 05:24:15 68° WNW 05:30:25 10° N
USA 307 3.3 05:22:34 29° W 05:24:24 50° SW 05:28:33 10° SE
Meteor PRIRODA 3.9 05:22:47 10° N 05:26:23 45° WNW 05:29:56 10° SW
CZ-4B R/B 3.3 05:24:16 10° N 05:28:30 44° WNW 05:32:32 10° SW
NOSS 2-1 (C) 4.4 05:26:25 10° SSW 05:29:35 39° ESE 05:32:48 10° NE
USA 308 3.4 05:28:59 25° W 05:31:02 45° SW 05:35:08 10° SSE
SJ-7 4.3 05:28:50 10° N 05:32:57 81° WNW 05:37:07 10° SSW
CZ-4C R/B 3.7 05:32:20 17° NW 05:34:32 21° NNW 05:39:20 10° NNE
Cosmos 2278 Rocket 2.1 05:29:06 10° SW 05:34:43 65° WNW 05:40:23 10° NNE
NOSS 2-1 (D) 4.0 05:31:52 10° SSW 05:35:05 46° ESE 05:38:23 10° NE
COSMO-SKYMED 1 3.6 05:31:58 10° SSW 05:35:37 26° W 05:37:21 20° WNW
FALCON 9 DEB 4.3 05:35:47 20° NNW 05:37:12 28° NNE 05:40:03 10° ENE
Okean O Rocket 3.0 05:33:53 10° NNE 05:38:09 43° E 05:42:24 10° S
Cosmos 1862 Rocket 3.5 05:33:58 10° NNW 05:38:25 78° W 05:42:47 10° S
Envisat 3.0 05:33:58 10° NNE 05:39:05 89° ESE 05:44:10 10° SSW
NOAA 6 4.1 05:37:23 10° NNE 05:42:32 85° ESE 05:47:39 10° SSW
YAOGAN 6 2.4 05:40:51 10° N 05:44:21 73° WNW 05:47:49 10° SSW
Cosmos 494 Rocket 4.2 05:39:47 12° NNW 05:44:24 47° WSW 05:49:16 10° S
Cosmos 1515 3.8 05:41:39 10° N 05:45:28 77° E 05:49:15 10° SSE
Cosmos 1844 Rocket 4.2 05:44:24 15° NW 05:45:30 16° NW 05:48:57 10° N
Cosmos 1933 Rocket 4.1 05:43:03 10° S 05:47:25 63° E 05:51:50 10° NNE
SMAP 3.6 05:42:58 10° NNE 05:47:37 64° ESE 05:52:13 10° S
Cosmos 1666 Rocket 3.9 05:44:29 10° SSW 05:48:34 40° WNW 05:52:43 10° N
COSMOS 2406 3.9 05:44:31 14° NW 05:48:49 34° WSW 05:53:57 10° SSW
Cosmos 1943 Rocket 4.3 05:46:40 10° SSE 05:51:21 29° ESE 05:56:03 10° NE
Cosmos 1689 Rocket 4.1 05:50:48 10° SW 05:51:47 13° WSW 05:51:47 13° WSW
BREEZE-M (TANK) 3.0 05:46:04 10° WSW 05:52:53 61° SSE 05:55:22 10° ENE
USA 305 4.1 05:53:05 15° W 05:55:55 29° SW 05:59:37 10° SSE
Cosmos 1242 Rocket 3.1 05:56:02 10° NNW 05:59:28 38° W 06:02:53 10° SSW
H-2A R/B 2.2 05:56:16 10° N 06:00:05 64° WNW 06:03:53 10° SSW
Meteor 2-4 Rocket 4.2 05:54:44 10° N 06:00:31 65° ENE 06:06:06 10° SSE
Cosmos 1271 Rocket 3.4 05:56:55 10° N 06:00:44 56° ENE 06:04:33 10° SSE
ATLAS 5 CENTAUR R/B 2.6 05:58:52 12° W 06:02:07 26° NNW 06:06:05 10° NNE
MOS 1 Rocket 4.1 05:59:31 10° SSW 06:04:07 36° W 06:08:59 10° NNW
USA 306 4.3 06:01:36 12° W 06:04:42 25° SW 06:08:13 10° S
CZ-2C R/B 2.7 06:00:10 10° SSE 06:05:36 86° WSW 06:10:56 10° NNW
BREEZE-M R/B 4.4 05:55:45 10° SW 06:06:02 72° SSE 06:10:40 10° ENE
Cosmos 2366 rocket 4.1 06:01:25 10° SSW 06:07:36 58° WNW 06:13:47 10° N
Cosmos 1633 Rocket 3.8 06:04:39 10° SW 06:08:36 31° WNW 06:12:34 10° N
USA 229 DEB 4.0 06:02:08 10° NW 06:09:29 83° NE 06:17:13 10° SE
USA 229 4.0 06:02:16 10° NW 06:09:35 83° NE 06:17:19 10° SE
NOAA 12 4.1 06:05:21 10° NNE 06:10:39 87° WNW 06:15:53 10° SSW
Okean 1-7 3.2 06:06:43 10° N 06:11:01 76° E 06:15:15 10° SSE
FALCON 9 DEB 3.8 06:10:17 11° NW 06:13:15 39° NNE 06:16:18 10° E
Cosmos 2218 Rocket 4.2 06:07:21 10° SSW 06:13:22 51° WNW 06:19:23 10° N
H-2A R/B 3.9 06:11:00 10° NNW 06:14:03 22° WNW 06:17:04 10° WSW
Cosmos 1125 Rocket 4.2 06:09:49 10° WSW 06:14:26 31° WNW 06:19:04 10° N
CORIOLIS 4.3 06:10:06 10° NNE 06:15:35 88° ESE 06:21:01 10° SSW
GENESIS II 4.4 06:13:07 10° SW 06:17:04 55° NW 06:21:03 10° NNE
NOSS 3-1 (C) 4.2 06:10:54 10° NW 06:18:27 75° SW 06:27:08 10° SSE
FALCON 9 DEB 3.8 06:15:57 10° NW 06:19:01 40° NNE 06:22:04 10° E
Cosmos 1269 Rocket 4.4 06:15:26 10° NNW 06:20:28 46° WSW 06:25:29 10° S
Iridium 2 3.6 06:18:42 10° N 06:22:27 80° W 06:26:12 10° S
Cosmos 1869 Rocket 4.3 06:18:45 10° S 06:23:07 61° E 06:27:33 10° NNE
NOSS 3-1 (A) 4.2 06:16:14 10° NW 06:23:46 85° NE 06:32:29 10° SE
FengYun 1-2 T 4.3 06:20:50 10° NNE 06:26:23 88° ESE 06:31:55 10° SSW
